Regional Weather Roundup
Issued by NWS

Home | Current Version | Previous Version | Text Only | Print | Product List | Glossary Off
Versions: 1 2 3 4 5 6 7 8 9 10 11 12 13 14 15 16 17 18 19 20 21 22 23 24 25 26 27 28 29 30 31 32 33 34 35 36 37 38 39 40 41 42 43 44 45 46 47 48 49 50

000
ASUS43 KFSD 130210
RWRSD

WEATHER ROUNDUP FOR SOUTH DAKOTA
NATIONAL WEATHER SERVICE SIOUX FALLS SD
900 PM CDT SAT JUL 12 2014

NOTE: "FAIR" INDICATES FEW OR NO CLOUDS BELOW 12,000 FEET WITH NO
SIGNIFICANT WEATHER AND/OR OBSTRUCTIONS TO VISIBILITY.


SDZ001>005-009-010-012>017-130300-
NORTHWEST AND NORTH CENTRAL SOUTH DAKOTA

CITY           SKY/WX    TMP DP  RH WIND       PRES   REMARKS
BUFFALO          N/A     75  53  46 N12       30.09R
FAITH            N/A     76  62  62 NW7       30.10S
MOBRIDGE       HVY RAIN  71  65  81 W17G25    30.03R VSB 3/4
$$

SDZ012>016-024>037-041>051-057-063-072>074-130300-
SOUTHWEST AND SOUTH CENTRAL SOUTH DAKOTA

CITY           SKY/WX    TMP DP  RH WIND       PRES   REMARKS
RAPID CTY ARPT PTCLDY    72  65  78 W7        30.16S
PIERRE         CLEAR     76  64  66 W3        30.04S
CUSTER         CLEAR     66  59  78 E6        30.31R
PHILIP         CLEAR     79  65  62 N3        30.09R
PINE RIDGE     MOCLDY    70  65  84 W5        30.17S
WINNER         FAIR      77  62  59 N7        30.07S
$$

SDZ004>011-016>023-039-040-130300-
NORTHEAST SOUTH DAKOTA

CITY           SKY/WX    TMP DP  RH WIND       PRES   REMARKS
ABERDEEN       MOCLDY    72  63  73 W6        29.99S
WATERTOWN      CLEAR     70  64  81 W5        30.00F
SISSETON         N/A     75  65  70 NW6       29.94F
$$

SDZ017-020-022-023-036>040-048>070-130300-
SOUTHEAST SOUTH DAKOTA

CITY           SKY/WX    TMP DP  RH WIND       PRES   REMARKS
SIOUX FALLS    PTCLDY    74  66  76 N7        30.01S
HURON          CLEAR     75  66  73 CALM      30.01S
CHAMBERLAIN    CLEAR     76  64  65 N7        30.05S
MITCHELL       PTCLDY    76  66  71 N5        30.03S
YANKTON        CLEAR     77  70  78 W3        30.02S
$$

ABBREVIATIONS USED IN REMARKS
   TC - TEMPERATURE IN CELSIUS
  WCI - WIND CHILL INDEX
   HX - HEAT INDEX
  VSB - VISIBILITY



USA.gov is the U.S. government's official web portal to all federal, state and local government web resources and services.